Powrót do katalogu

IRIDIUM 119

AktywnyŁącznośćPO
NORAD 42959·PAYLOAD·🇺🇸 United States

Wystrzelony Oct 9, 2017 z Vandenberg Space Force Base

Loading…

Następne Przeloty (najbliższe 24 godziny)

TLE

ŚwieżeSource: CelesTrak SupGP

Epoka: Sep 14, 2026, 21:01 UTC

1 42959C 17061E   26257.87604167 -.00002056  00000+0 -73500-3 0  2574
2 42959  86.4028 347.7729 0002315  96.0191  43.5900 14.34219706    14

Śledź IRIDIUM 119 w czasie rzeczywistym z AllMySat

Download on the App Store